Find Local Weather

World > North America > United States > Wisconsin

Mellen, Wisconsin Regional Weather

Lat: 46.32N, Lon: 90.66W
Wx Zone: WIZ003
Warning FLW WEATHER ALERT - (More Info. Click Here) Warning
Feedback
Expires:201901240200;;825548
ASUS43 KMKX 240059
RWRWI 

WISCONSIN REGIONAL WEATHER ROUNDUP
NATIONAL WEATHER SERVICE MILWAUKEE/SULLIVAN WI
700 PM CST WED JAN 23 2019

NOTE: "FAIR" INDICATES FEW OR NO CLOUDS BELOW 12,000 FEET WITH NO
SIGNIFICANT WEATHER AND/OR OBSTRUCTIONS TO VISIBILITY.


WIZ003>005-009-010-017-018-240200-
NORTH CENTRAL WISCONSIN
  
CITY           SKY/WX    TMP DP  RH WIND       PRES   REMARKS
MANITOWISH WTR CLOUDY    13  11  91 CALM      29.71S                  
ARBOR VITAE    CLOUDY    17  12  83 CALM      29.71S                  
WOODRUFF       CLOUDY    17  12  83 CALM      29.71S                  
RHINELANDER    CLOUDY    18  11  74 W5        29.71R WCI  11          
EAGLE RIVER    FLURRIES  15  12  85 CALM      29.70R                  
LAND O LAKES   CLOUDY    16  13  89 W3        29.71S                  
PHILLIPS       CLOUDY    12   7  81 CALM      29.72F                  
TOMAHAWK       FAIR      10   6  82 CALM      29.73S                  
MEDFORD        CLOUDY    14   8  75 W3        29.74S                  
MERRILL        MOCLDY    17   9  69 CALM      29.75R                  
$$
 

SKY/WX - Weather  TMP - Temperature  DP - Dew Point  RH - Relative Humidity
WIND - Wind Direction/Speed PRES - Barometric Pressure